When you browse on this site, cookies collect data to enhance your experience and personalize the content and advertising you see.
Visit our Privacy Policy to learn more. By continuing to use the site, you agree to this use of cookies and data.
  • In Hungary
  • List of Countries
  • For 7 days
  • Water Temperature
  • Satellite Maps
  • Weather Map
  • News
  • Weather Widgets
  • user-avatar
    Login

    Hourly Weather Centerville

    Today, 19 March, Tuesday

    Time Temperature Precipitation Wind Pressure Humidity
    00:00 +1°C° 0 mm 1 mps 744 mmHg 63%
    01:00 -1°C° 0 mm 0 mps 744 mmHg 64%
    02:00 -1°C° 0 mm 0 mps 744 mmHg 65%
    03:00 -1°C° 0 mm 0 mps 744 mmHg 66%
    04:00 -1°C° 0 mm 0 mps 744 mmHg 66%
    05:00 -1°C° 0 mm 0 mps 744 mmHg 67%
    06:00 0°C° 0 mm 1 mps 745 mmHg 67%
    07:00 +2°C° 0 mm 1 mps 745 mmHg 62%
    08:00 +4°C° 0 mm 1 mps 745 mmHg 56%
    09:00 +6°C° 0 mm 1 mps 746 mmHg 51%
    10:00 +7°C° 0 mm 1 mps 745 mmHg 47%
    11:00 +7°C° 0 mm 2 mps 745 mmHg 43%
    12:00 +8°C° 0 mm 2 mps 745 mmHg 39%
    13:00 +8°C° 0 mm 2 mps 744 mmHg 38%
    14:00 +8°C° 0 mm 2 mps 744 mmHg 37%
    15:00 +9°C° 0 mm 2 mps 743 mmHg 36%
    16:00 +7°C° 0 mm 2 mps 743 mmHg 41%
    17:00 +7°C° 0 mm 1 mps 743 mmHg 46%
    18:00 +6°C° 0 mm 1 mps 743 mmHg 51%
    19:00 +5°C° 0 mm 1 mps 743 mmHg 53%
    20:00 +4°C° 0 mm 0 mps 743 mmHg 55%
    21:00 +3°C° 0 mm 0 mps 743 mmHg 57%
    22:00 +3°C° 0 mm 0 mps 742 mmHg 59%
    23:00 +3°C° 0 mm 1 mps 742 mmHg 60%

    Tomorrow, 20 March, Wednesday

    Time Temperature Precipitation Wind Pressure Humidity
    00:00 +3°C° 0 mm 1 mps 742 mmHg 61%
    01:00 +3°C° 0 mm 1 mps 742 mmHg 62%
    02:00 +3°C° 0 mm 1 mps 741 mmHg 62%
    03:00 +3°C° 0 mm 1 mps 741 mmHg 63%
    04:00 +2°C° 0 mm 2 mps 741 mmHg 64%
    05:00 +1°C° 0 mm 2 mps 741 mmHg 65%
    06:00 +1°C° 0 mm 2 mps 740 mmHg 66%
    07:00 +2°C° 0 mm 3 mps 740 mmHg 61%
    08:00 +4°C° 0 mm 4 mps 740 mmHg 57%
    09:00 +6°C° 0 mm 4 mps 740 mmHg 52%
    10:00 +7°C° 0 mm 5 mps 739 mmHg 49%
    11:00 +9°C° 0 mm 5 mps 738 mmHg 47%
    12:00 +10°C° 0 mm 6 mps 738 mmHg 45%
    13:00 +10°C° 0 mm 6 mps 737 mmHg 47%
    14:00 +11°C° 0 mm 6 mps 736 mmHg 49%
    15:00 +11°C° 0 mm 6 mps 735 mmHg 51%
    16:00 +10°C° 0.2 mm 5 mps 735 mmHg 58%
    17:00 +8°C° 0.2 mm 4 mps 734 mmHg 65%
    18:00 +8°C° 0.2 mm 3 mps 734 mmHg 73%
    19:00 +7°C° 0.5 mm 4 mps 734 mmHg 78%
    20:00 +6°C° 0.5 mm 4 mps 734 mmHg 83%
    21:00 +6°C° 0.5 mm 4 mps 734 mmHg 88%
    22:00 +6°C° 0.9 mm 4 mps 734 mmHg 89%
    23:00 +5°C° 0.9 mm 4 mps 733 mmHg 90%

    Day after tomorrow, 21 March, Thursday

    Time Temperature Precipitation Wind Pressure Humidity
    00:00 +5°C° 0.9 mm 5 mps 733 mmHg 92%
    01:00 +5°C° 0.2 mm 4 mps 733 mmHg 93%
    02:00 +5°C° 0.2 mm 4 mps 733 mmHg 94%
    03:00 +4°C° 0.2 mm 3 mps 733 mmHg 95%
    04:00 +4°C° 0 mm 3 mps 733 mmHg 93%
    05:00 +4°C° 0 mm 3 mps 733 mmHg 92%
    06:00 +4°C° 0 mm 4 mps 734 mmHg 90%
    07:00 +4°C° 0 mm 4 mps 734 mmHg 84%
    08:00 +5°C° 0 mm 4 mps 735 mmHg 78%
    09:00 +5°C° 0 mm 4 mps 735 mmHg 72%
    10:00 +6°C° 0 mm 5 mps 735 mmHg 68%
    11:00 +7°C° 0 mm 5 mps 735 mmHg 63%
    12:00 +8°C° 0 mm 5 mps 735 mmHg 58%
    13:00 +8°C° 0 mm 5 mps 735 mmHg 59%
    14:00 +7°C° 0 mm 5 mps 734 mmHg 60%
    15:00 +7°C° 0 mm 5 mps 734 mmHg 61%
    16:00 +6°C° 0 mm 4 mps 734 mmHg 64%
    17:00 +6°C° 0 mm 4 mps 734 mmHg 66%
    18:00 +5°C° 0 mm 3 mps 734 mmHg 69%
    19:00 +4°C° 0 mm 3 mps 734 mmHg 72%
    20:00 +4°C° 0 mm 3 mps 735 mmHg 76%
    21:00 +4°C° 0 mm 2 mps 735 mmHg 79%
    22:00 +3°C° 0 mm 3 mps 734 mmHg 80%
    23:00 +3°C° 0 mm 3 mps 734 mmHg 80%

    22 March, Friday

    Time Temperature Precipitation Wind Pressure Humidity
    00:00 +3°C° 0 mm 4 mps 734 mmHg 80%
    01:00 +3°C° 0 mm 4 mps 734 mmHg 81%
    02:00 +3°C° 0 mm 4 mps 734 mmHg 82%
    03:00 +2°C° 0 mm 5 mps 733 mmHg 83%
    04:00 +1°C° 0 mm 4 mps 734 mmHg 86%
    05:00 0°C° 0 mm 4 mps 734 mmHg 88%
    06:00 0°C° 0 mm 4 mps 735 mmHg 91%
    07:00 +1°C° 0 mm 5 mps 735 mmHg 81%
    08:00 +2°C° 0 mm 5 mps 736 mmHg 71%
    09:00 +3°C° 0 mm 6 mps 736 mmHg 61%
    10:00 +4°C° 0 mm 6 mps 736 mmHg 58%
    11:00 +7°C° 0 mm 6 mps 736 mmHg 55%
    12:00 +8°C° 0 mm 6 mps 736 mmHg 52%
    13:00 +8°C° 0 mm 7 mps 736 mmHg 50%
    14:00 +8°C° 0 mm 7 mps 736 mmHg 49%
    15:00 +9°C° 0 mm 8 mps 736 mmHg 47%
    16:00 +6°C° 0 mm 7 mps 737 mmHg 51%
    17:00 +5°C° 0 mm 6 mps 737 mmHg 55%
    18:00 +4°C° 0 mm 4 mps 737 mmHg 58%
    19:00 +3°C° 0 mm 4 mps 738 mmHg 61%
    20:00 +1°C° 0 mm 4 mps 738 mmHg 63%
    21:00 0°C° 0 mm 4 mps 739 mmHg 65%
    22:00 0°C° 0 mm 3 mps 739 mmHg 66%
    23:00 -1°C° 0 mm 3 mps 739 mmHg 68%

    23 March, Saturday

    Time Temperature Precipitation Wind Pressure Humidity
    00:00 -1°C° 0 mm 2 mps 739 mmHg 69%
    01:00 -2°C° 0 mm 2 mps 739 mmHg 69%
    02:00 -2°C° 0 mm 2 mps 739 mmHg 70%
    03:00 -3°C° 0 mm 2 mps 740 mmHg 70%
    04:00 -3°C° 0 mm 2 mps 740 mmHg 69%
    05:00 -3°C° 0 mm 2 mps 740 mmHg 68%
    06:00 -3°C° 0 mm 2 mps 741 mmHg 67%
    07:00 -1°C° 0 mm 2 mps 741 mmHg 56%
    08:00 +2°C° 0 mm 2 mps 741 mmHg 46%
    09:00 +3°C° 0 mm 3 mps 742 mmHg 35%
    10:00 +4°C° 0 mm 3 mps 742 mmHg 33%
    11:00 +7°C° 0 mm 3 mps 741 mmHg 31%
    12:00 +8°C° 0 mm 2 mps 741 mmHg 29%
    13:00 +9°C° 0 mm 2 mps 741 mmHg 30%
    14:00 +10°C° 0 mm 2 mps 740 mmHg 30%
    15:00 +12°C° 0 mm 2 mps 740 mmHg 31%
    16:00 +9°C° 0 mm 2 mps 740 mmHg 36%
    17:00 +8°C° 0 mm 1 mps 740 mmHg 41%
    18:00 +7°C° 0 mm 1 mps 740 mmHg 46%
    19:00 +6°C° 0 mm 1 mps 740 mmHg 49%
    20:00 +6°C° 0 mm 1 mps 740 mmHg 52%
    21:00 +5°C° 0 mm 1 mps 740 mmHg 55%
    22:00 +5°C° 0 mm 1 mps 740 mmHg 55%
    23:00 +4°C° 0 mm 1 mps 739 mmHg 56%

    24 March, Sunday

    Time Temperature Precipitation Wind Pressure Humidity
    00:00 +4°C° 0 mm 1 mps 739 mmHg 57%
    01:00 +4°C° 0 mm 1 mps 739 mmHg 58%
    02:00 +4°C° 0 mm 1 mps 739 mmHg 59%
    03:00 +3°C° 0 mm 1 mps 739 mmHg 60%
    04:00 +3°C° 0 mm 1 mps 739 mmHg 61%
    05:00 +3°C° 0 mm 1 mps 739 mmHg 61%
    06:00 +3°C° 0 mm 1 mps 739 mmHg 62%
    07:00 +4°C° 0 mm 2 mps 738 mmHg 58%
    08:00 +6°C° 0 mm 2 mps 738 mmHg 54%
    09:00 +8°C° 0 mm 2 mps 738 mmHg 50%
    10:00 +9°C° 0 mm 2 mps 738 mmHg 46%
    11:00 +11°C° 0 mm 3 mps 737 mmHg 42%
    12:00 +13°C° 0 mm 3 mps 736 mmHg 39%
    13:00 +13°C° 0 mm 3 mps 736 mmHg 39%
    14:00 +13°C° 0 mm 3 mps 735 mmHg 39%
    15:00 +13°C° 0 mm 3 mps 735 mmHg 40%
    16:00 +13°C° 0 mm 2 mps 734 mmHg 45%
    17:00 +12°C° 0 mm 2 mps 734 mmHg 51%
    18:00 +9°C° 0 mm 2 mps 734 mmHg 56%
    19:00 +9°C° 0 mm 2 mps 733 mmHg 59%
    20:00 +9°C° 0 mm 2 mps 733 mmHg 61%
    21:00 +9°C° 0 mm 2 mps 733 mmHg 64%
    22:00 +9°C° 0 mm 2 mps 733 mmHg 68%
    23:00 +8°C° 0 mm 2 mps 732 mmHg 72%
    Show more